Lexington Weather

Lexington, Massachusetts, USA

48°F
12/8/2022 3:12pm 
  • Lexington Conditions: Clear
  • Temperature: 48.0°F / 8.9°CColder 1.5°F than last hour.
  • Dew Point: 35.6°FIncreased 0.4°Fsince last hour.
  • Relative Humidity: 62%Increased 4.0% since last hour.
  • Wind: Wind from N N 1 mph, 10-min avg: Calm, gust: 6 mph
  • Barometer: 30.08 inRising 0.02  inHg/hr Rising Slowly
  • Visibility: 10 miles
  • Rain Today: 0.00 in
  •   

Warning: Undefined variable $rc in /homepages/6/d276339138/htdocs/weather/20190804/ssi/nwsProduct.php on line 323

Warning: Undefined variable $rc in /homepages/6/d276339138/htdocs/weather/20190804/ssi/nwsProduct.php on line 325

Warning: Undefined variable $rc in /homepages/6/d276339138/htdocs/weather/20190804/ssi/nwsProduct.php on line 323

Warning: Undefined variable $rc in /homepages/6/d276339138/htdocs/weather/20190804/ssi/nwsProduct.php on line 325

Warning: Undefined variable $rc in /homepages/6/d276339138/htdocs/weather/20190804/ssi/nwsProduct.php on line 323

Warning: Undefined variable $rc in /homepages/6/d276339138/htdocs/weather/20190804/ssi/nwsProduct.php on line 325

Warning: Undefined variable $rc in /homepages/6/d276339138/htdocs/weather/20190804/ssi/nwsProduct.php on line 323

Warning: Undefined variable $rc in /homepages/6/d276339138/htdocs/weather/20190804/ssi/nwsProduct.php on line 325

Warning: Undefined variable $rc in /homepages/6/d276339138/htdocs/weather/20190804/ssi/nwsProduct.php on line 323

Warning: Undefined variable $rc in /homepages/6/d276339138/htdocs/weather/20190804/ssi/nwsProduct.php on line 325

Warning: Undefined variable $rc in /homepages/6/d276339138/htdocs/weather/20190804/ssi/nwsProduct.php on line 323

Warning: Undefined variable $rc in /homepages/6/d276339138/htdocs/weather/20190804/ssi/nwsProduct.php on line 325

Warning: Undefined variable $rc in /homepages/6/d276339138/htdocs/weather/20190804/ssi/nwsProduct.php on line 323

Warning: Undefined variable $rc in /homepages/6/d276339138/htdocs/weather/20190804/ssi/nwsProduct.php on line 325

Regional Weather Roundup
for Boston, MA

        
000
ASUS41 KBOX 022110
RWRBOX

REGIONAL WEATHER ROUNDUP
NATIONAL WEATHER SERVICE BOSTON/NORTON MA
400 PM EST FRI DEC 02 2022

NOTE:  "FAIR" INDICATES FEW OR NO CLOUDS BELOW 12,000 FEET WITH NO 
SIGNIFICANT WEATHER AND/OR OBSTRUCTIONS TO VISIBILITY.

MAZALL-022200-
EASTERN MASSACHUSETTS
  
CITY           SKY/WX    TMP DP  RH WIND       PRES   REMARKS
BOSTON         MOCLDY    42  24  49 S12       30.48R                  
BEVERLY        CLEAR     39  26  59 SE7       30.46F                  
LAWRENCE       CLEAR     42  21  43 S5        30.47F                  
BEDFORD        CLEAR     43  22  43 S7        30.45S                  
NORWOOD        CLEAR     43  23  45 S6        30.48R                  
MARSHFIELD       N/A     41  27  56 S8        30.49R                  
PLYMOUTH       CLEAR     42  29  59 VRB3      30.49R                  
TAUNTON          N/A    N/A N/A N/A MISG      30.49R                  
NEW BEDFORD    CLEAR     42  31  64 SW7       30.49R                  
$$

MAZALL-022200-
CAPE COD AND THE ISLANDS
  
CITY           SKY/WX    TMP DP  RH WIND       PRES   REMARKS
FALMOUTH       CLEAR     45  30  57 S9        30.50S                  
HYANNIS        MOCLDY    42  33  70 S7        30.49R                  
CHATHAM        CLEAR     42  30  62 SW5       30.52R                  
PROVINCETOWN   CLEAR     42  29  59 SW8       30.51R                  
NANTUCKET      PTCLDY    46  34  62 SW12      30.51R                  
MARTHAS VNYRD  CLEAR     44  33  65 SW7       30.50R                  
$$
 
MAZALL-022200-
CENTRAL AND WESTERN MASSACHUSETTS
  
CITY           SKY/WX    TMP DP  RH WIND       PRES   REMARKS
WORCESTER      CLOUDY    41  21  44 S9        30.43R                  
FITCHBURG      CLOUDY    43  19  38 S6        30.45R                  
ORANGE         CLOUDY    40  23  50 S7        30.45R                  
SPRINGFIELD    MOCLDY    41  22  48 S8        30.43R                  
WESTFIELD      PTCLDY    41  23  48 S7        30.44S                  
NORTH ADAMS    CLOUDY    38  27  64 CALM      30.40R                  
PITTSFIELD     CLOUDY    38  20  48 S6        30.38S                  
$$
 
RIZALL-022200-
RHODE ISLAND
  
CITY           SKY/WX    TMP DP  RH WIND       PRES   REMARKS
PROVIDENCE     MOCLDY    41  24  51 SW12      30.50R                  
NEWPORT        CLEAR     40  29  64 VRB3      30.49R                  
BLOCK ISLAND   PTCLDY    42  31  64 SW7       30.51R                  
SMITHFIELD     MOCLDY    41  23  48 VRB6      30.47R                  
WESTERLY       CLEAR     42  29  59 SW6       30.50R                  
$$
 
CTZALL-022200-
CONNECTICUT
  
CITY           SKY/WX    TMP DP  RH WIND       PRES   REMARKS
BRADLEY INTL   MOCLDY    43  22  43 S12       30.45F                  
HARTFORD       PTCLDY    44  26  49 S10       30.47S                  
BRIDGEPORT     CLOUDY    43  31  62 SW7       30.47F                  
DANBURY        CLOUDY    42  24  49 S8        30.46R                  
GROTON         PTCLDY    42  29  59 SW6       30.50R                  
NEW HAVEN      CLOUDY    43  31  62 CALM      30.47F                  
CHESTER        MOCLDY    41  27  56 S3        30.47S                  
MERIDEN        CLOUDY    42  26  53 S8        30.47F                  
WILLIMANTIC    CLOUDY    42  23  46 S8        30.48R                  
OXFORD         MOCLDY    39  27  62 S8        30.45F                  
$$

MEZ002-015-021-024-NHZ003-005-008-011-012-014-VTZ005-008-022200-
NORTHERN NEW ENGLAND
  
CITY           SKY/WX    TMP DP  RH WIND       PRES   REMARKS
PORTLAND ME    PTCLDY    37  22  54 S6        30.48S                  
BANGOR ME      PTCLDY    31  19  61 CALM      30.48R                  
CONCORD NH     CLOUDY    39  22  50 SE9       30.43F                  
MANCHESTER NH  MOCLDY    42  22  44 SE7       30.43S                  
NASHUA NH      CLOUDY    42  22  44 SE3       30.45S                  
PORTSMOUTH NH  MOCLDY    38  25  59 SE7       30.46S                  
JAFFREY NH     CLOUDY    39  22  50 SW6       30.41S                  
KEENE NH       CLOUDY    40  23  50 S9          N/A                   
BURLINGTON VT  MOCLDY    39  23  52 S14G22    30.33F WCI  31          
MT. WASHINGTON MOCLDY    18   9  68 SW35        N/A  WCI  -3          
$$

NYZ052-076-022200-
EASTERN NEW YORK
  
CITY           SKY/WX    TMP DP  RH WIND       PRES   REMARKS
ALBANY         MOCLDY    41  22  46 SE8       30.39F                  
NEW YORK CITY  PTCLDY    43  19  38 S10       30.47F                  
$$
 
ANZALL-022200-
MARINE OBSERVATIONS
  
STATION/POSITION TIME  TEMP    WIND        PRES    VSBY  WAVE
                       AIR SEA DIR/SP/G                  HT/PER
                 (UTC) (F)     (DEG/KT/KT) (MB)    (MI)  (FT/S)
BOSTON BUOY      2050          170/ 10/ 12 1032.6F         2/11
BUZZARDS BAY     2000   43     230/ 15/ 17 1033.1S
NANTUCKET SOUND  2050   46                   N/A
MASS BAY-STELLWA 1904   41 50  170/  8/ 12 1031.9R  1 7/8  2/11
ISLE OF SHOALS   2000   40     140/ 12/ 13 1031.3F
S OF BLOCK IS    2026      55                N/A           2/ 7
$$

......................KEY.........................
  SKY/WX - SKY CONDITION/PRESENT WEATHER
  TMP    - TEMPERATURE IN FAHRENHEIT
  DWPT   - DEWPOINT IN FAHRENHEIT
  RH     - RELATIVE HUMIDITY IN PERCENT
  WIND   - DIRECTION AND SPEED IN MPH
  PRES   - MEAN SEA LEVEL PRESSURE IN INCHES OF HG
  WCI    - WIND CHILL INDEX
  VSB    - VISIBILITY IN MILES
  HX     - HEAT INDEX
  TC     - TEMPERATURE IN CELSIUS
  VRB    - VARIABLE WIND DIRECTION
  N/A    - NOT AVAILABLE
  
      

Other recent Regional Weather Roundups

Thu Dec 8, 2:10pm

Thu Dec 8, 1:10pm

Thu Dec 8, 12:10pm

Thu Dec 8, 11:10am

Thu Dec 8, 10:10am

Thu Dec 8, 9:10am

Thu Dec 8, 8:10am

Thu Dec 8, 7:10am

Thu Dec 8, 6:10am

Thu Dec 8, 5:10am

Thu Dec 8, 4:10am

Thu Dec 8, 3:10am

Thu Dec 8, 2:10am

Thu Dec 8, 1:10am

Thu Dec 8, 12:10am

Wed Dec 7, 11:10pm

Wed Dec 7, 10:10pm

Wed Dec 7, 9:10pm

Wed Dec 7, 8:10pm

Wed Dec 7, 7:10pm

Wed Dec 7, 6:10pm

Wed Dec 7, 5:10pm

Wed Dec 7, 4:10pm

Wed Dec 7, 3:10pm

Wed Dec 7, 2:10pm

Wed Dec 7, 1:10pm

Wed Dec 7, 12:10pm

Wed Dec 7, 11:10am

Wed Dec 7, 10:10am

Wed Dec 7, 9:10am

Wed Dec 7, 8:10am

Wed Dec 7, 7:10am

Wed Dec 7, 6:10am

Wed Dec 7, 5:10am

Wed Dec 7, 4:10am

Wed Dec 7, 3:10am

Wed Dec 7, 2:10am

Wed Dec 7, 1:10am

Wed Dec 7, 12:10am

Tue Dec 6, 11:10pm

Tue Dec 6, 10:10pm

Tue Dec 6, 9:10pm

Tue Dec 6, 8:10pm

Tue Dec 6, 7:10pm

Tue Dec 6, 6:10pm

Tue Dec 6, 5:10pm

Tue Dec 6, 4:10pm

Tue Dec 6, 3:10pm

Tue Dec 6, 2:10pm

Tue Dec 6, 1:10pm

Tue Dec 6, 12:10pm

Tue Dec 6, 11:10am

Tue Dec 6, 10:10am

Tue Dec 6, 9:10am

Tue Dec 6, 8:10am

Tue Dec 6, 7:10am

Tue Dec 6, 6:10am

Tue Dec 6, 5:10am

Tue Dec 6, 4:10am

Tue Dec 6, 3:10am

Tue Dec 6, 2:10am

Tue Dec 6, 1:10am

Tue Dec 6, 12:10am

Mon Dec 5, 11:10pm

Mon Dec 5, 10:10pm

Mon Dec 5, 9:10pm

Mon Dec 5, 8:10pm

Mon Dec 5, 7:10pm

Mon Dec 5, 6:10pm

Mon Dec 5, 5:10pm

Mon Dec 5, 4:10pm

Mon Dec 5, 3:10pm

Mon Dec 5, 2:10pm

Mon Dec 5, 1:10pm

Mon Dec 5, 12:10pm

Mon Dec 5, 11:10am

Mon Dec 5, 10:10am

Mon Dec 5, 9:10am

Mon Dec 5, 8:10am

Mon Dec 5, 7:10am

Mon Dec 5, 6:10am

Mon Dec 5, 5:10am

Mon Dec 5, 4:10am

Mon Dec 5, 3:10am

Mon Dec 5, 2:10am

Mon Dec 5, 1:10am

Mon Dec 5, 12:10am

Sun Dec 4, 11:10pm

Sun Dec 4, 10:10pm

Sun Dec 4, 9:10pm

Sun Dec 4, 8:10pm

Sun Dec 4, 7:10pm

Sun Dec 4, 6:10pm

Sun Dec 4, 5:10pm

Sun Dec 4, 4:10pm

Sun Dec 4, 3:10pm

Sun Dec 4, 2:10pm

Sun Dec 4, 1:10pm

Sun Dec 4, 12:10pm

Sun Dec 4, 11:10am

Sun Dec 4, 10:10am

Sun Dec 4, 9:10am

Sun Dec 4, 8:10am

Sun Dec 4, 7:10am

Sun Dec 4, 6:10am

Sun Dec 4, 5:10am

Sun Dec 4, 4:10am

Sun Dec 4, 3:10am

Sun Dec 4, 2:10am

Sun Dec 4, 1:10am

Sun Dec 4, 12:10am

Sat Dec 3, 11:10pm

Sat Dec 3, 10:10pm

Sat Dec 3, 9:10pm

Sat Dec 3, 8:10pm

Sat Dec 3, 7:10pm

Sat Dec 3, 6:10pm

Sat Dec 3, 5:10pm

Sat Dec 3, 4:10pm

Sat Dec 3, 3:10pm

Sat Dec 3, 2:10pm

Sat Dec 3, 1:10pm

Sat Dec 3, 12:10pm

Sat Dec 3, 11:10am

Sat Dec 3, 10:10am

Sat Dec 3, 9:10am

Sat Dec 3, 8:10am

Sat Dec 3, 7:10am

Sat Dec 3, 6:10am

Sat Dec 3, 5:10am

Sat Dec 3, 4:10am

Sat Dec 3, 3:10am

Sat Dec 3, 2:10am

Sat Dec 3, 1:10am

Sat Dec 3, 12:10am

Fri Dec 2, 11:10pm

Fri Dec 2, 10:10pm

Fri Dec 2, 9:10pm

Fri Dec 2, 8:10pm

Fri Dec 2, 7:10pm

Fri Dec 2, 6:10pm

Fri Dec 2, 5:10pm

Fri Dec 2, 3:10pm

Fri Dec 2, 2:10pm

Fri Dec 2, 1:10pm

Fri Dec 2, 12:10pm

Fri Dec 2, 11:10am

Fri Dec 2, 10:10am

Fri Dec 2, 9:10am

Fri Dec 2, 8:10am

Fri Dec 2, 7:10am

Fri Dec 2, 6:10am

Fri Dec 2, 5:10am

Fri Dec 2, 4:10am

Fri Dec 2, 3:10am

Fri Dec 2, 2:10am

Fri Dec 2, 1:10am

Fri Dec 2, 12:10am

Thu Dec 1, 11:10pm

Thu Dec 1, 10:10pm

Thu Dec 1, 9:10pm

Thu Dec 1, 8:10pm

Thu Dec 1, 7:10pm

Thu Dec 1, 6:10pm

Thu Dec 1, 5:10pm

Thu Dec 1, 4:10pm

Thu Dec 1, 3:10pm

Meta data:

ID: a0f7046b-b24f-40c6-a3a5-65a6b04d6b5d
Link: https://api.weather.gov/products/a0f7046b-b24f-40c6-a3a5-65a6b04d6b5d